Wind_Speed
13 12 15 12 5 5 6 5 5 4 5 6 5 5 8 11 14 21 18 21 21 14 19 13 13 11 12 11 8 9 13 14 12 11 10 9 12 11 12 12 12 12 12 11
11 15 14 7 7 4 5 1 2 6 5 3 4 5 9 13 12 18 21 20 21 18 11 11 10 12 12 11 9 10 13 13 12 11 13 11 9 12 13 14 13 14 13 11
15 8 12 10 9 8 8 4 3 3 6 3 5 2 8 11 11 23 21 21 18 21 21 16 15 14 11 13 10 13 13 15 12 11 12 11 12 10 12 13 13 15 14 14
15 14 9 12 14 12 2 1 4 6 8 8 7 3 17 11 12 14 18 18 25 18 24 24 15 15 13 14 10 12 15 15 14 13 12 12 11 8 8 13 13 13 15 14
13 12 14 12 14 13 0 3 6 6 11 12 11 11 6 11 10 11 16 19 25 26 21 18 17 18 16 17 13 9 10 16 14 13 11 12 11 10 5 10 9 14 17 14
9 9 12 12 10 9 7 5 8 10 11 13 1 9 10 8 7 4 12 12 20 24 25 21 18 22 14 14 16 14 10 11 14 15 14 13 12 10 13 13 11 9 13 16
10 10 11 11 11 9 10 16 7 8 6 10 10 8 7 2 2 4 5 12 15 17 17 18 19 19 15 16 14 18 12 11 12 15 15 14 14 14 12 12 11 7 7 10
15 16 15 13 16 8 10 18 16 7 8 8 3 0 7 1 1 2 2 9 14 19 21 20 22 21 21 18 18 19 16 12 12 12 15 18 15 14 14 15 14 13 9 4
12 11 14 13 10 9 7 10 13 12 8 6 5 5 4 3 3 2 2 1 9 16 15 24 21 22 21 20 20 19 20 12 12 11 13 16 18 17 16 14 15 14 20 16
5 11 13 13 12 13 13 9 9 9 2 10 3 5 13 8 3 1 2 4 4 8 18 16 19 22 23 22 20 20 21 15 11 13 13 15 16 18 18 16 18 14 13 16
14 14 10 12 16 18 9 11 9 14 10 4 3 9 5 7 7 2 3 6 4 4 6 13 16 24 26 24 22 22 22 19 17 15 13 14 16 15 17 19 19 19 19 20
21 12 17 16 14 12 10 10 11 10 9 8 11 9 6 9 9 7 6 6 4 5 2 3 7 13 21 29 32 25 25 22 20 18 16 15 15 15 16 17 19 21 21 20
19 17 16 16 14 15 17 16 15 13 15 10 13 10 3 5 9 7 4 3 1 6 4 2 3 4 14 21 32 32 29 23 22 23 20 18 16 15 14 15 17 19 20 21
18 21 18 4 9 6 11 11 9 14 17 12 12 13 10 8 8 6 6 5 3 2 3 4 5 5 6 11 24 33 30 28 23 24 24 23 19 18 15 14 15 16 18 20
22 23 15 11 11 7 8 9 10 14 18 21 2 7 0 8 6 7 7 7 7 6 3 6 8 9 9 10 19 27 34 29 27 28 27 24 22 21 20 19 16 18 20 20
22 24 18 18 12 11 13 13 15 14 14 17 15 13 8 7 9 8 10 10 9 8 6 10 11 11 10 11 7 20 32 35 30 30 29 27 26 25 26 25 25 24 23 21
26 24 20 21 17 13 15 16 16 14 14 13 15 11 7 10 13 18 14 11 11 10 9 9 11 9 10 11 9 7 26 31 32 25 27 29 28 26 26 29 25 23 25 23
26 23 23 20 16 13 17 9 7 10 12 14 15 16 10 9 9 10 13 11 11 11 11 10 11 12 13 14 14 12 16 16 31 25 24 29 31 30 28 29 29 28 27 27
24 24 25 21 23 17 12 11 13 12 13 12 15 13 12 10 9 9 10 9 9 9 12 14 15 17 20 20 20 19 17 19 23 27 29 28 28 30 28 26 25 25 30 33
26 22 24 18 18 17 18 11 11 9 15 13 11 10 12 10 9 14 12 10 10 15 19 18 21 24 24 25 24 26 26 25 23 25 27 31 33 33 30 29 28 27 30 32
28 27 27 27 17 18 13 9 8 9 1 5 10 11 11 9 6 9 7 10 15 18 22 24 24 23 25 25 26 24 24 26 27 28 28 29 32 33 33 33 33 32 33 34
34 31 31 26 24 19 10 13 13 6 3 6 9 12 12 14 7 7 7 8 12 18 19 19 23 21 21 24 23 22 19 21 24 26 28 26 28 34 37 35 33 36 35 35
35 37 32 26 27 21 13 17 13 13 9 8 9 11 13 11 9 8 8 10 16 15 16 16 17 19 18 20 19 19 18 20 21 23 26 28 25 26 29 31 35 33 30 30
34 29 33 26 22 11 17 14 11 12 10 8 9 10 12 12 10 9 8 9 14 16 17 18 17 17 16 18 21 16 17 18 19 21 24 29 25 24 27 30 24 23 25 26
27 27 26 25 16 17 16 15 15 14 13 10 11 11 11 10 10 9 8 11 15 20 22 22 21 21 21 21 20 19 18 18 19 21 25 27 24 24 20 16 16 20 24 27
14 20 27 24 23 21 15 15 16 16 15 12 12 12 11 11 10 11 13 17 22 23 24 23 21 20 21 20 21 20 19 21 20 22 22 23 23 22 18 16 18 22 24 21
Wind_Direction
204 214 224 223 186 209 294 35 99 106 148 166 171 150 174 213 216 201 189 218 185 198 193 206 175 192 201 203 183 190 190 184 178 164 149 159 174 184 184 176 174 176 184 182
208 224 223 233 252 258 274 310 106 148 150 205 153 178 196 195 190 202 202 200 212 197 204 233 179 195 201 202 205 186 178 177 179 178 146 182 155 190 195 190 181 185 191 189
218 230 226 241 228 225 228 232 140 187 198 218 224 269 183 187 198 202 204 202 209 223 196 211 197 204 200 222 200 206 200 196 189 181 177 170 162 183 189 196 176 189 189 192
229 230 244 229 220 227 220 269 231 245 194 31 250 218 271 190 192 203 216 203 212 209 238 199 207 214 216 229 215 206 214 210 204 192 183 176 168 177 186 192 200 189 189 191
224 224 222 216 215 217 21 225 227 250 265 203 241 263 166 186 189 219 212 223 224 218 210 231 202 229 217 222 240 209 223 218 211 204 192 184 183 200 158 188 201 195 188 192
253 209 203 199 207 209 238 215 223 236 249 261 234 286 109 212 107 170 216 216 229 198 210 208 214 247 205 218 235 241 216 225 221 218 213 200 190 186 174 188 190 196 195 188
210 197 186 199 191 198 220 218 135 292 343 318 199 287 76 62 59 144 170 203 199 210 207 197 216 218 216 223 225 240 220 225 231 225 219 210 200 201 208 191 184 168 187 219
198 177 193 198 204 207 215 250 274 285 182 185 146 282 102 156 158 135 119 191 209 211 216 206 212 212 220 214 223 221 238 219 225 228 225 220 216 210 208 201 186 173 234 198
200 207 172 198 211 218 190 261 262 292 217 269 162 183 186 116 154 186 165 118 196 195 218 211 207 209 217 216 215 214 235 211 218 224 228 229 224 221 217 204 199 193 182 210
243 163 197 208 218 233 247 298 223 217 185 261 140 234 144 163 110 171 196 168 173 180 201 222 208 214 215 225 221 222 224 225 221 223 230 231 233 233 230 235 213 208 211 201
225 233 186 200 214 216 204 234 246 272 314 301 104 16 102 140 150 137 148 157 170 172 176 201 218 216 215 220 227 228 225 224 223 224 221 237 236 232 235 242 234 221 219 229
211 224 188 213 212 229 239 256 230 220 198 278 315 135 136 139 133 144 147 138 156 170 159 199 270 246 217 225 221 217 224 221 225 220 220 222 235 239 238 240 248 250 246 240
203 230 196 201 213 229 239 241 254 255 273 187 269 135 190 160 160 146 183 185 284 236 245 249 222 304 223 238 223 229 221 220 220 230 220 222 228 243 250 246 243 248 250 250
220 225 241 215 319 186 205 219 237 256 269 252 244 143 182 190 190 174 187 197 202 227 261 283 320 318 312 241 235 216 223 224 223 219 229 232 237 240 233 253 257 251 249 248
216 233 234 217 230 237 263 260 258 253 256 273 57 236 153 154 171 215 210 212 236 237 251 297 309 318 313 318 223 221 213 215 228 230 231 239 239 237 237 239 254 260 255 250
218 237 254 268 245 249 263 260 261 251 248 243 263 261 256 229 251 228 220 220 212 210 240 285 300 314 317 309 328 236 215 219 227 229 238 243 241 247 251 250 258 263 250 252
222 231 233 240 247 234 254 257 251 244 243 243 247 254 238 254 252 253 253 222 207 210 239 264 292 296 309 315 293 301 229 223 220 226 240 243 249 250 249 254 254 266 251 247
219 228 231 242 250 226 252 257 235 249 250 249 251 249 265 244 230 225 251 226 209 234 252 268 274 286 295 298 296 266 261 266 231 239 249 248 250 253 258 257 258 264 261 257
220 217 225 239 241 240 235 246 248 252 260 255 247 243 235 230 216 208 201 210 218 240 268 275 280 286 290 285 284 277 267 258 252 246 250 249 251 252 257 257 256 261 263 261
224 218 225 224 250 255 247 245 223 241 263 241 228 221 220 200 228 211 211 231 260 274 282 286 289 288 281 283 274 271 267 262 262 257 254 250 248 248 256 259 262 266 265 263
216 219 218 227 230 246 248 210 202 230 206 164 213 208 199 204 187 197 232 268 278 284 285 287 287 284 281 279 281 276 260 258 258 253 251 255 249 246 245 251 259 262 263 266
209 209 223 229 233 234 227 209 208 243 251 235 215 199 208 218 213 234 248 265 279 283 278 285 289 280 271 279 278 277 260 259 264 250 246 254 253 250 253 259 258 265 262 257
218 216 218 226 229 225 220 226 237 226 238 215 207 210 216 228 217 234 251 274 293 297 286 280 274 277 278 275 265 267 266 266 272 257 246 251 260 258 254 258 262 257 256 251
218 215 224 232 233 220 224 211 223 208 214 219 213 211 220 217 228 238 262 281 294 300 297 294 289 282 276 273 265 264 263 270 273 258 252 248 256 258 259 266 267 256 253 250
216 214 208 217 226 218 216 222 215 208 216 215 219 219 220 220 224 236 265 286 297 302 303 300 292 284 276 274 272 268 267 268 272 258 252 248 252 251 261 261 267 269 263 252
201 204 206 219 224 215 227 217 211 218 217 217 223 222 217 218 224 246 281 294 303 305 305 301 295 283 274 272 270 265 271 272 272 262 254 243 247 251 253 259 274 274 263 257
Height
3169 3170 3165 3164 3163 3166 3166 3163 3165 3167 3168 3168 3168 3169 3171 3170 3171 3174 3177 3180 3182 3186 3187 3187 3191 3193 3193 3193 3191 3193 3194 3195 3197 3198 3200 3202 3203 3205 3207 3209 3212 3214 3216 3218
3169 3167 3164 3165 3165 3166 3164 3163 3166 3168 3167 3166 3167 3169 3169 3169 3168 3172 3176 3177 3182 3185 3179 3183 3189 3192 3194 3191 3191 3193 3194 3196 3197 3199 3201 3204 3205 3205 3207 3209 3211 3213 3216 3218
3164 3164 3164 3165 3166 3166 3163 3162 3164 3166 3167 3168 3168 3166 3168 3169 3169 3169 3171 3176 3179 3181 3184 3187 3190 3190 3192 3190 3191 3193 3195 3196 3197 3199 3200 3202 3203 3205 3207 3208 3211 3213 3216 3218
3164 3162 3164 3165 3165 3164 3160 3164 3165 3165 3165 3173 3164 3164 3159 3166 3168 3168 3171 3171 3175 3180 3175 3181 3186 3190 3190 3190 3190 3192 3194 3196 3197 3199 3201 3202 3203 3205 3207 3208 3210 3213 3215 3217
3160 3161 3162 3163 3163 3163 3162 3164 3164 3165 3162 3161 3162 3155 3158 3162 3163 3166 3168 3168 3170 3172 3181 3184 3178 3187 3188 3189 3189 3190 3192 3195 3196 3198 3201 3202 3204 3202 3206 3209 3210 3212 3215 3217
3158 3159 3160 3160 3161 3163 3163 3164 3163 3162 3159 3154 3158 3157 3157 3160 3158 3163 3164 3167 3167 3171 3177 3178 3185 3180 3186 3188 3190 3188 3191 3194 3195 3197 3199 3201 3202 3203 3206 3208 3210 3212 3214 3216
3156 3157 3158 3159 3160 3162 3163 3158 3162 3164 3164 3153 3156 3154 3156 3159 3160 3163 3165 3166 3167 3169 3173 3179 3182 3185 3186 3187 3189 3189 3189 3192 3194 3195 3198 3199 3201 3203 3205 3207 3209 3212 3215 3216
3151 3155 3156 3158 3157 3157 3158 3154 3152 3157 3155 3141 3150 3150 3155 3160 3161 3162 3162 3165 3167 3171 3170 3177 3181 3183 3184 3187 3188 3189 3187 3190 3192 3194 3196 3198 3200 3202 3204 3207 3209 3213 3215 3215
3145 3145 3151 3155 3156 3157 3155 3155 3150 3147 3142 3146 3147 3153 3156 3160 3161 3163 3164 3164 3166 3168 3169 3173 3177 3181 3182 3184 3186 3188 3186 3187 3190 3191 3194 3196 3199 3200 3202 3206 3206 3209 3212 3215
3145 3145 3149 3152 3156 3156 3154 3154 3151 3150 3146 3143 3151 3148 3152 3159 3161 3163 3164 3164 3165 3167 3168 3171 3173 3177 3179 3181 3184 3184 3185 3185 3188 3189 3191 3193 3196 3199 3201 3203 3204 3206 3205 3211
3145 3145 3148 3150 3152 3150 3153 3153 3151 3146 3144 3141 3141 3155 3153 3155 3159 3162 3163 3165 3166 3167 3166 3167 3169 3171 3175 3178 3178 3181 3182 3183 3185 3187 3190 3192 3194 3196 3198 3201 3203 3204 3205 3207
3144 3142 3143 3144 3146 3147 3146 3147 3148 3144 3147 3144 3143 3153 3155 3156 3157 3161 3163 3164 3163 3163 3165 3165 3165 3166 3170 3172 3175 3177 3178 3182 3183 3185 3187 3190 3192 3193 3195 3197 3199 3201 3202 3203
3142 3141 3142 3142 3143 3145 3147 3148 3147 3144 3141 3143 3145 3149 3155 3156 3156 3159 3162 3162 3161 3162 3163 3164 3165 3164 3165 3166 3168 3173 3175 3179 3180 3183 3184 3186 3189 3191 3193 3194 3195 3197 3199 3201
3138 3138 3134 3134 3140 3138 3142 3144 3146 3145 3142 3140 3141 3145 3149 3153 3156 3157 3159 3161 3160 3160 3161 3162 3162 3162 3161 3162 3162 3165 3170 3173 3177 3180 3182 3183 3185 3186 3189 3191 3192 3192 3194 3196
3137 3136 3137 3134 3140 3140 3141 3143 3144 3145 3144 3140 3142 3146 3146 3148 3152 3155 3158 3159 3158 3159 3159 3159 3159 3159 3159 3157 3157 3160 3164 3169 3171 3174 3177 3178 3181 3182 3184 3185 3187 3189 3190 3192
3134 3133 3133 3131 3133 3137 3140 3141 3142 3142 3142 3142 3142 3145 3146 3146 3150 3153 3154 3156 3156 3157 3157 3156 3156 3156 3156 3155 3154 3155 3158 3162 3166 3169 3171 3173 3175 3177 3179 3181 3183 3184 3185 3187
3129 3130 3132 3130 3131 3133 3138 3137 3137 3139 3140 3141 3142 3144 3141 3144 3146 3148 3149 3151 3153 3154 3154 3154 3154 3154 3154 3153 3153 3153 3154 3157 3160 3163 3166 3168 3169 3171 3174 3176 3177 3179 3180 3182
3124 3127 3128 3128 3129 3128 3132 3132 3134 3135 3136 3138 3139 3141 3141 3143 3143 3144 3145 3147 3149 3150 3150 3151 3152 3151 3151 3151 3151 3152 3151 3152 3153 3157 3161 3162 3164 3166 3167 3169 3171 3173 3175 3177
3118 3122 3123 3125 3125 3125 3127 3130 3133 3133 3135 3135 3136 3138 3138 3139 3141 3141 3142 3144 3145 3146 3146 3147 3148 3148 3148 3148 3147 3147 3148 3149 3150 3151 3154 3156 3158 3159 3161 3162 3164 3166 3168 3169
3114 3116 3120 3120 3121 3120 3121 3125 3126 3130 3130 3131 3133 3135 3136 3138 3139 3139 3138 3141 3142 3143 3142 3143 3142 3142 3142 3141 3141 3141 3141 3142 3143 3145 3146 3147 3149 3151 3153 3154 3156 3158 3159 3160
3110 3111 3113 3115 3118 3119 3121 3122 3125 3130 3130 3127 3130 3132 3134 3137 3137 3135 3137 3138 3138 3138 3138 3137 3136 3135 3134 3134 3132 3133 3133 3134 3135 3136 3137 3138 3140 3142 3143 3145 3148 3149 3150 3150
3103 3108 3108 3112 3112 3116 3117 3121 3125 3126 3125 3127 3128 3131 3133 3133 3135 3136 3136 3136 3135 3134 3133 3132 3128 3128 3127 3126 3126 3125 3126 3127 3127 3128 3130 3131 3132 3133 3135 3136 3137 3138 3139 3139
3096 3099 3103 3106 3107 3111 3113 3118 3120 3122 3124 3125 3127 3129 3130 3131 3133 3133 3133 3131 3130 3128 3126 3125 3124 3122 3120 3118 3119 3120 3120 3121 3121 3121 3123 3124 3125 3126 3127 3128 3128 3128 3128 3129
3089 3093 3096 3102 3105 3105 3110 3114 3117 3119 3121 3122 3124 3126 3127 3129 3130 3130 3129 3128 3125 3123 3120 3119 3118 3116 3115 3113 3112 3115 3116 3116 3115 3115 3117 3117 3119 3120 3120 3120 3119 3119 3119 3121
3084 3087 3091 3096 3099 3103 3107 3110 3114 3116 3118 3120 3122 3123 3124 3125 3126 3126 3125 3122 3120 3117 3115 3113 3112 3110 3109 3107 3107 3109 3110 3110 3110 3109 3110 3111 3114 3114 3115 3114 3114 3114 3113 3114
3078 3083 3087 3092 3095 3099 3103 3106 3110 3112 3114 3117 3119 3119 3120 3122 3122 3121 3119 3117 3115 3112 3109 3107 3105 3104 3103 3102 3102 3103 3103 3103 3103 3103 3104 3106 3108 3110 3110 3110 3110 3109 3109 3109